Location: Home
(42.5358°N, 72.7383°W)
Time: 15:29:22
(UTC-05:00)

Vanguard 3 - Pass Details

Date: 08 December 2021
Orbit: 508 x 3260 km, 33.3° (Epoch: 20 January)

Event Time Altitude Azimuth Distance (km) Brightness Sun altitude
Rises 02:41:35 0° 240° (WSW) 6,536 - -48.1°
Reaches altitude 10° 02:45:39 10° 236° (WSW) 5,764 - -47.4°
Exits shadow 03:00:37 54° 194° (SSW) 3,729 10.1 -44.7°
Maximum altitude 03:04:01 58° 164° (SSE) 3,615 10.2 -44.1°
Drops below altitude 10° 03:21:31 10° 93° (E) 5,537 12.0 -40.9°
Sets 03:25:20 0° 89° (E) 6,278 12.6 -40.2°
